CZ-6A DEB, 61313

Orbit data source: Space-Track

CZ-6A DEB, 61313 is space debris in LEO originally from a launch on Tue, 06 Aug 2024 UTC launched from the Taiyaun Space Center, China (TSC). Debris objects in space refer to the collection of defunct objects orbiting the Earth. Examples of debris include non-operational satellites, rocket bodies, and fragments generated from explosions, collisions, or faulty payload assembly.

Loading next visibility...
Identifier
61313, 2024-140UA
Orbit
LEO
Country
Flag of CNCN / PRC
Related business
Manufacturer
SAST
Mission
Spacecraft
Bus & Motor
Unknown
Mass
Unknown
Launch date (UTC)
2024-08-06 (2 years ago)
Launch vehicle
Unknown
Launch site
Taiyaun Space Center, China (TSC)
Object type
Payload
Rocket body
Debris
Shape & HBR
Unknown shape, 0.1 m
Radar Cross Section
Medium (>0.1 m² and <1 m²)

Expand to show TLE details & history
Last TLE update: 18 hours ago

TLE from 18 hours ago
0 CZ-6A DEB
1 61313U 24140UA  26171.23217160  .00013817  00000-0  22294-2 0  9995
2 61313  88.7694 250.5396 0035435 211.2663 148.6448 14.70930220 96614
Epoch: 2026-06-20T05:34Z
TLE epoch observation values (Epoch: 2026-06-20T05:34:19.626Z)
Latitude
-0.00007°
Longitude
-101.49193°
Altitude
682.545 km
Speed
7.504 km/s
True Right ascension
16h 42m 09s
True Declination
0° 00' 00"
Sunlit
Object was in full shadow at epoch
Visualization orbit readout
Latitude
Unknown
Longitude
Unknown
Altitude
Unknown
Speed
Unknown
Apparent Right ascension
Unknown
Apparent Declination
Unknown
Sunlit
N/A
Visualization observer readout
Local Sidereal Time
10:18:04
Azimuth
Unknown
Elevation
Unknown
Doppler factor
Unknown
Orbital elements
Apogee altitude
679.902 km
Perigee altitude
630.058 km
Semi-major axis
7,033.117 km
Eccentricity
0.00354
Inclination
88.7694°
RAAN
250.5396°
Arg. of periapsis
211.2663°
True anomaly
148.85529°
Mean anomaly
148.6448°
Eccentric anomaly
148.75012°
Mean motion
3.67978 °/min
Orbital period
97.83 mins
BSTAR
0.0022294
Loading maneuver chart data...
Computing Atmospheric mass density...
Loading historical data...
Loading historical data...
Loading historical data...
Loading historical data...
Loading historical data...
Loading historical data...
Loading historical data...

Documentation

Showing up to 5 results
|